Date,Time[GMT],Depth[m],Alt[m],T90[oC],Turb[FTU]
22-Jun-2004,21:10:07,1.0,0.0,29.5561,0.0000
22-Jun-2004,21:10:27,1.0,0.0,29.5171,0.0000
22-Jun-2004,21:10:47,1.0,0.0,29.5764,0.0000
22-Jun-2004,21:11:07,-0.3,0.0,29.6047,0.0000
22-Jun-2004,21:11:27,-0.3,0.0,29.6477,0.0000
22-Jun-2004,21:13:20,4.7,0.0,29.6369,0.0920
22-Jun-2004,21:13:43,9.6,0.0,29.6975,0.0370
22-Jun-2004,21:41:35,792.7,39.6,31.5517,0.0060
22-Jun-2004,21:41:45,798.8,38.6,31.9619,0.0180
22-Jun-2004,21:41:55,803.7,37.7,32.2132,0.0000
22-Jun-2004,21:42:05,808.6,36.7,32.4327,0.0000
22-Jun-2004,21:42:15,814.7,35.7,32.0896,0.0060
22-Jun-2004,21:42:25,819.6,34.7,32.1692,0.0000
22-Jun-2004,21:42:35,825.7,33.7,32.5005,0.0120
22-Jun-2004,21:42:45,830.6,32.7,32.7161,0.0120
22-Jun-2004,21:42:55,836.7,31.7,32.7696,0.0120
22-Jun-2004,21:43:05,842.8,30.7,32.6298,0.0060
22-Jun-2004,21:43:15,849.0,29.7,32.3724,0.0000
22-Jun-2004,21:43:25,855.1,28.7,31.9885,0.0060
22-Jun-2004,21:43:35,858.7,27.8,31.8652,0.0120
22-Jun-2004,21:43:45,862.4,26.8,31.5933,0.0000
22-Jun-2004,21:43:55,866.1,25.8,31.5558,0.0120
22-Jun-2004,21:44:05,868.5,24.8,31.3903,0.0120
22-Jun-2004,21:44:15,871.0,23.8,31.2847,0.0120
22-Jun-2004,21:44:25,874.6,22.7,31.1676,0.0060
22-Jun-2004,21:44:35,879.5,21.8,31.1510,0.0000
22-Jun-2004,21:44:45,884.4,20.7,31.1081,0.0000
22-Jun-2004,21:44:55,888.1,19.7,31.0402,0.0000
22-Jun-2004,21:45:05,890.5,18.7,30.9511,0.0000
22-Jun-2004,21:45:15,895.4,17.6,30.9389,0.0180
22-Jun-2004,21:45:25,900.3,16.6,30.8699,0.0120
22-Jun-2004,21:45:35,905.2,15.6,31.6323,0.0060
22-Jun-2004,21:45:45,910.1,14.6,31.9671,0.0000
22-Jun-2004,21:45:55,916.2,13.6,32.2300,0.0000
22-Jun-2004,21:46:05,918.7,12.7,32.0815,0.0180
22-Jun-2004,21:46:15,923.6,11.7,31.6387,0.0060
22-Jun-2004,21:46:25,928.4,10.7,31.4380,0.0060
22-Jun-2004,21:46:35,933.3,9.7,31.2313,0.0120
22-Jun-2004,21:46:45,935.8,8.7,31.1634,0.0060
22-Jun-2004,21:46:55,939.4,100.5,31.0284,0.0120
22-Jun-2004,21:47:05,944.3,100.5,30.9893,0.0240
22-Jun-2004,21:47:15,948.0,100.5,30.9570,0.0240
22-Jun-2004,21:47:25,951.7,100.5,30.9564,0.0310
22-Jun-2004,21:47:35,954.1,100.5,30.9611,0.0310
22-Jun-2004,21:47:45,957.8,100.5,31.0174,0.0180
22-Jun-2004,21:47:55,961.4,100.5,30.9943,0.0180
22-Jun-2004,21:48:05,966.3,100.5,30.9610,0.0120
22-Jun-2004,21:48:15,971.2,100.5,30.9671,0.0120
22-Jun-2004,21:48:25,976.1,100.5,30.9655,0.0240
22-Jun-2004,21:48:35,982.2,100.5,30.9023,0.0240
22-Jun-2004,21:48:45,988.3,100.5,30.8955,0.0120
22-Jun-2004,21:48:55,994.4,100.5,30.8709,0.0240
22-Jun-2004,21:49:05,1000.5,100.5,30.8492,0.0180
22-Jun-2004,21:49:15,1006.6,100.5,30.8315,0.0310
22-Jun-2004,21:49:25,1012.7,100.5,30.8154,0.0370
22-Jun-2004,21:49:35,1018.8,100.5,30.8625,0.0240
22-Jun-2004,21:49:45,1026.2,100.5,30.8450,0.0180
22-Jun-2004,21:49:55,1033.5,100.5,30.8763,0.0370
22-Jun-2004,21:50:05,1039.6,100.5,30.8470,0.0240
22-Jun-2004,21:50:15,1046.9,100.5,30.9106,0.0180
22-Jun-2004,21:50:25,1054.3,100.5,30.9110,0.0310
22-Jun-2004,21:50:35,1060.4,100.5,30.9905,0.0240
22-Jun-2004,21:50:45,1067.7,100.5,31.0329,0.0310
22-Jun-2004,21:50:55,1073.8,100.5,31.0678,0.0180
22-Jun-2004,21:51:05,1078.7,100.5,31.6764,0.0240
22-Jun-2004,21:51:15,1082.3,100.5,32.1485,0.0120
22-Jun-2004,21:51:25,1086.0,100.5,32.5708,0.0180
22-Jun-2004,21:51:35,1089.6,100.5,32.9071,0.0240
22-Jun-2004,21:51:45,1092.1,100.5,33.0350,0.0240
22-Jun-2004,21:51:55,1097.0,100.5,33.4136,0.0120
22-Jun-2004,21:52:05,1100.6,100.5,33.4028,0.0120
22-Jun-2004,21:52:15,1104.3,100.5,33.3237,0.0120
22-Jun-2004,21:52:25,1109.2,100.5,32.8393,0.0180
22-Jun-2004,21:52:35,1114.0,100.5,32.5380,0.0310
22-Jun-2004,21:52:45,1117.7,100.5,32.8552,0.0120
22-Jun-2004,21:52:55,1122.6,100.5,33.1193,0.0120
22-Jun-2004,21:53:05,1126.2,100.5,32.6158,0.0310
22-Jun-2004,21:53:15,1132.3,100.5,31.9777,0.0180
22-Jun-2004,21:53:25,1136.0,100.5,31.3851,0.0120
22-Jun-2004,21:53:35,1140.9,100.5,31.0661,0.0120
22-Jun-2004,21:53:45,1145.8,100.5,31.0690,0.0060
22-Jun-2004,21:53:55,1151.8,100.5,31.5686,0.0120
22-Jun-2004,21:54:05,1156.7,100.5,29.5851,0.0060
22-Jun-2004,21:54:15,1162.8,100.5,29.5905,0.0000
22-Jun-2004,21:54:25,1168.9,100.5,29.5982,0.0060
22-Jun-2004,21:54:35,1175.0,100.5,29.7492,0.0120
22-Jun-2004,21:54:45,1181.1,100.5,29.6227,0.0060
22-Jun-2004,21:54:55,1188.4,100.5,29.2693,0.0060
22-Jun-2004,21:55:05,1193.3,100.5,29.9927,0.0180
22-Jun-2004,21:55:15,1198.2,100.5,28.9644,0.0120
22-Jun-2004,21:55:35,1205.5,100.5,28.6321,0.0120
22-Jun-2004,21:55:45,1207.9,100.5,28.4240,0.0240
22-Jun-2004,21:56:05,1212.8,100.5,28.3861,0.0120
22-Jun-2004,21:56:15,1214.0,100.5,28.3410,0.0060
22-Jun-2004,21:56:25,1216.5,100.5,28.3316,0.0180
22-Jun-2004,21:56:45,1223.8,100.5,28.3360,0.0120
22-Jun-2004,21:56:55,1227.4,100.5,28.3383,0.0120
22-Jun-2004,21:57:05,1233.5,100.5,28.3399,0.0240
22-Jun-2004,21:57:15,1239.6,100.5,28.3429,0.0120
22-Jun-2004,21:57:25,1244.5,25.5,28.3439,0.0370
22-Jun-2004,21:57:35,1249.3,21.6,28.3432,0.0240
22-Jun-2004,21:57:45,1254.2,17.2,28.3406,0.0120
22-Jun-2004,21:57:55,1259.1,12.2,28.3412,0.0180
22-Jun-2004,21:58:05,1262.7,8.5,28.3189,0.0240
22-Jun-2004,21:58:15,1266.4,100.5,28.2754,0.0120
22-Jun-2004,21:58:25,1265.2,100.5,28.1853,0.0120
22-Jun-2004,21:58:35,1261.5,8.9,27.9960,0.0120
22-Jun-2004,21:58:45,1260.3,9.9,27.5965,0.0060
22-Jun-2004,21:58:55,1261.5,10.1,26.8099,0.0180
22-Jun-2004,21:59:05,1262.7,8.4,26.3114,0.0060
22-Jun-2004,21:59:15,1265.2,100.5,25.8726,0.0240
22-Jun-2004,21:59:25,1265.2,100.5,24.8309,0.0060
22-Jun-2004,21:59:35,1265.2,100.5,24.6014,0.0180
22-Jun-2004,21:59:45,1266.4,100.5,24.4385,0.0240
22-Jun-2004,21:59:55,1266.4,100.5,24.1354,0.0120
22-Jun-2004,22:00:05,1266.4,100.5,23.8198,0.0430
22-Jun-2004,22:00:15,1267.6,100.5,23.4059,0.0180
22-Jun-2004,22:00:25,1268.8,100.5,22.9508,0.0060
22-Jun-2004,22:00:35,1270.0,100.5,22.3658,0.0120
22-Jun-2004,22:00:45,1268.8,100.5,22.2027,0.0180
22-Jun-2004,22:00:55,1266.4,100.5,22.1035,0.0180
22-Jun-2004,22:01:05,1266.4,100.5,21.9042,0.0120
22-Jun-2004,22:01:15,1267.6,99.4,21.5816,0.0180
22-Jun-2004,22:01:25,1265.2,98.4,21.4386,0.0060
22-Jun-2004,22:01:35,1262.7,8.8,21.3174,0.0310
22-Jun-2004,22:01:45,1265.2,96.4,21.0427,0.0430
22-Jun-2004,22:01:55,1265.2,95.4,20.8803,0.0310
22-Jun-2004,22:02:05,1265.2,94.4,20.7044,0.0120
22-Jun-2004,22:02:15,1265.2,93.4,20.7772,0.0120
22-Jun-2004,22:02:25,1262.7,8.3,20.7291,0.0060
22-Jun-2004,22:02:45,1264.0,7.9,20.6109,0.0060
22-Jun-2004,22:02:55,1262.7,8.5,20.6577,0.0240
22-Jun-2004,22:03:05,1264.0,10.4,20.7307,0.0180
22-Jun-2004,22:03:15,1265.2,11.0,20.7289,0.0120
22-Jun-2004,22:03:25,1268.8,9.2,20.7367,0.0060
22-Jun-2004,22:03:35,1273.7,85.5,20.7172,0.0370
22-Jun-2004,22:03:45,1270.0,84.6,20.5667,0.0310
22-Jun-2004,22:03:55,1268.8,9.7,20.4712,0.0120
22-Jun-2004,22:04:05,1266.4,12.4,20.3666,0.0180
22-Jun-2004,22:04:15,1264.0,15.1,20.4389,0.0180
22-Jun-2004,22:04:25,1262.7,17.1,20.3891,0.0120
22-Jun-2004,22:04:35,1262.7,17.4,20.1885,0.0060
22-Jun-2004,22:04:45,1264.0,16.4,19.9079,0.0310
22-Jun-2004,22:04:55,1267.6,12.1,19.6180,0.0240
22-Jun-2004,22:05:05,1272.5,78.3,19.5596,0.0120
22-Jun-2004,22:05:15,1273.7,78.3,19.3352,0.0670
22-Jun-2004,22:05:25,1270.0,9.8,19.1870,0.0370
22-Jun-2004,22:05:35,1271.3,8.6,19.1575,0.0180
22-Jun-2004,22:05:45,1271.3,8.5,19.1359,0.0730
22-Jun-2004,22:05:55,1268.8,11.1,19.0854,0.0120
22-Jun-2004,22:06:05,1271.3,9.0,18.9143,0.0370
22-Jun-2004,22:06:15,1272.5,78.3,18.7853,0.0490
22-Jun-2004,22:06:25,1271.3,26.2,18.6581,0.0550
22-Jun-2004,22:06:35,1267.6,11.9,18.5118,0.0180
22-Jun-2004,22:06:45,1266.4,13.4,18.4453,0.0120
22-Jun-2004,22:06:55,1265.2,14.8,18.3712,0.0180
22-Jun-2004,22:07:05,1264.0,15.5,18.2109,0.0240
22-Jun-2004,22:07:15,1264.0,15.8,18.1100,0.0120
22-Jun-2004,22:07:25,1264.0,15.2,17.8604,0.0120
22-Jun-2004,22:07:35,1267.6,12.0,17.8166,0.0120
22-Jun-2004,22:07:45,1267.6,11.1,17.6726,0.0240
22-Jun-2004,22:07:55,1266.4,13.0,17.5994,0.0120
22-Jun-2004,22:08:05,1264.0,15.3,17.4697,0.0060
22-Jun-2004,22:08:15,1264.0,15.9,17.3115,0.0180
22-Jun-2004,22:08:25,1266.4,13.5,17.2424,0.0120
22-Jun-2004,22:08:35,1268.8,10.8,17.1263,0.0120
22-Jun-2004,22:08:45,1272.5,78.3,16.8344,0.0240
22-Jun-2004,22:08:55,1267.6,10.8,16.7826,0.0120
22-Jun-2004,22:09:05,1260.3,18.6,16.6792,0.0180
22-Jun-2004,22:09:15,1251.8,26.7,16.4901,0.0310
22-Jun-2004,22:09:25,1245.7,78.3,16.3364,0.0240
22-Jun-2004,22:09:35,1238.4,78.3,16.2247,0.0310
22-Jun-2004,22:09:45,1232.3,78.3,16.0282,0.0120
22-Jun-2004,22:09:55,1226.2,78.3,15.9036,0.0310
22-Jun-2004,22:10:05,1220.1,78.3,15.8390,0.0120
22-Jun-2004,22:10:15,1212.8,78.3,15.6620,0.0120
22-Jun-2004,22:10:25,1207.9,78.3,15.5495,0.0120
22-Jun-2004,22:10:35,1203.0,78.3,15.5094,0.0120
22-Jun-2004,22:10:55,1192.1,78.3,15.4273,0.0060
22-Jun-2004,22:11:05,1187.2,78.3,15.3829,0.0060
22-Jun-2004,22:11:15,1181.1,78.3,15.2358,0.0240
22-Jun-2004,22:11:25,1176.2,78.3,15.1525,0.0060
22-Jun-2004,22:11:35,1172.6,78.3,15.1046,0.0060
22-Jun-2004,22:11:45,1167.7,78.3,14.9747,0.0060
22-Jun-2004,22:11:55,1161.6,78.3,14.7521,0.0180
22-Jun-2004,22:12:05,1156.7,78.3,14.5893,0.0120
22-Jun-2004,22:12:15,1151.8,78.3,14.4104,0.0180
22-Jun-2004,22:12:25,1147.0,78.3,14.3861,0.0060
22-Jun-2004,22:12:35,1142.1,78.3,14.2175,0.0180
22-Jun-2004,22:12:55,1131.1,78.3,14.1193,0.0120
22-Jun-2004,22:13:05,1126.2,78.3,14.0671,0.0120
22-Jun-2004,22:13:15,1120.1,78.3,13.9178,0.0060
22-Jun-2004,22:13:25,1115.3,78.3,13.8449,0.0120
22-Jun-2004,22:13:35,1110.4,78.3,13.7310,0.0240
22-Jun-2004,22:13:45,1106.7,78.3,13.6272,0.0120
22-Jun-2004,22:13:55,1100.6,78.3,13.4946,0.0180
22-Jun-2004,22:14:05,1095.7,78.3,13.5004,0.0310
22-Jun-2004,22:14:15,1090.9,78.3,13.3594,0.0180
22-Jun-2004,22:14:25,1087.2,78.3,13.2397,0.0490
22-Jun-2004,22:14:35,1081.1,78.3,13.1705,0.0240
22-Jun-2004,22:14:55,1072.6,78.3,13.0513,0.0370
22-Jun-2004,22:15:05,1068.9,78.3,12.8779,0.0370
22-Jun-2004,22:15:15,1061.6,78.3,12.7974,0.0240
22-Jun-2004,22:15:25,1057.9,78.3,12.7104,0.0310
22-Jun-2004,22:15:35,1051.8,78.3,12.6197,0.0180
22-Jun-2004,22:15:45,1045.7,78.3,12.5103,0.0180
22-Jun-2004,22:15:55,1039.6,78.3,12.3965,0.0180
22-Jun-2004,22:16:05,1034.7,78.3,12.3900,0.0240
22-Jun-2004,22:16:15,1028.6,78.3,12.1676,0.0180
22-Jun-2004,22:16:25,1023.7,78.3,12.0671,0.0240
22-Jun-2004,22:16:35,1017.6,78.3,11.9495,0.0180
22-Jun-2004,22:16:45,1011.5,78.3,11.9445,0.0310
22-Jun-2004,22:16:55,1005.4,78.3,11.7965,0.0310
22-Jun-2004,22:17:05,999.3,78.3,11.7216,0.0180
22-Jun-2004,22:17:15,993.2,78.3,11.7055,0.0180
22-Jun-2004,22:17:55,968.8,78.3,11.5890,0.0240
22-Jun-2004,22:18:45,939.4,78.3,11.5838,0.0120
22-Jun-2004,22:18:55,933.3,78.3,11.4221,0.0120
22-Jun-2004,22:19:05,928.4,78.3,11.3870,0.0240
22-Jun-2004,22:19:15,922.3,78.3,11.2667,0.0120
22-Jun-2004,22:19:25,915.0,78.3,11.1645,0.0180
22-Jun-2004,22:19:35,908.9,78.3,11.0819,0.0120
22-Jun-2004,22:19:45,904.0,78.3,10.9960,0.0120
22-Jun-2004,22:19:55,896.7,78.3,10.9429,0.0060
22-Jun-2004,22:20:05,890.5,78.3,10.8488,0.0000
22-Jun-2004,22:20:15,883.2,78.3,10.7943,0.0000
22-Jun-2004,22:20:25,875.9,78.3,10.7495,0.0000
22-Jun-2004,22:20:35,869.8,78.3,10.5841,0.0060
22-Jun-2004,22:20:45,861.2,78.3,10.5780,0.0000
22-Jun-2004,22:20:55,855.1,78.3,10.5132,0.0000
22-Jun-2004,22:21:05,847.7,78.3,10.4760,0.0000
22-Jun-2004,22:21:25,833.1,78.3,10.4612,0.0000
22-Jun-2004,22:21:35,825.7,78.3,10.4476,0.0120
22-Jun-2004,22:21:45,818.4,78.3,10.3632,0.0060
22-Jun-2004,22:21:55,811.0,78.3,10.3423,0.0000
22-Jun-2004,22:22:05,802.5,78.3,10.2706,0.0180
22-Jun-2004,22:22:25,789.0,78.3,10.2574,0.0060
22-Jun-2004,22:22:35,781.6,78.3,10.2019,0.0180
22-Jun-2004,22:22:45,775.5,78.3,10.1775,0.0000
22-Jun-2004,22:23:05,762.1,78.3,10.1237,0.0000
22-Jun-2004,22:23:15,754.7,78.3,10.0340,0.0060
22-Jun-2004,22:23:35,740.0,78.3,9.9925,0.0180
22-Jun-2004,22:23:45,732.7,78.3,9.9279,0.0310
22-Jun-2004,22:23:55,724.1,78.3,9.8902,0.0180
22-Jun-2004,22:24:05,716.7,78.3,9.8247,0.0120
22-Jun-2004,22:24:15,708.2,78.3,9.7370,0.0120
22-Jun-2004,22:24:25,702.0,78.3,9.6839,0.0180
22-Jun-2004,22:24:35,694.7,78.3,9.6298,0.0310
22-Jun-2004,22:24:45,687.3,78.3,9.5723,0.0120
22-Jun-2004,22:24:55,680.0,78.3,9.5359,0.0120
22-Jun-2004,22:25:05,671.4,78.3,9.4740,0.0370
22-Jun-2004,22:25:15,664.0,78.3,9.4298,0.0180
22-Jun-2004,22:25:25,657.9,78.3,9.3868,0.0310
22-Jun-2004,22:25:35,649.3,78.3,9.2952,0.0310
22-Jun-2004,22:25:45,643.2,78.3,9.2439,0.0310
22-Jun-2004,22:25:55,635.9,78.3,9.2330,0.0430
22-Jun-2004,22:26:05,628.5,78.3,9.1677,0.0240
22-Jun-2004,22:26:15,621.1,78.3,9.1013,0.0430
22-Jun-2004,22:26:25,613.8,78.3,9.0232,0.0370
22-Jun-2004,22:26:35,606.4,78.3,8.9945,0.0310
22-Jun-2004,22:26:45,599.1,78.3,8.9187,0.0180
22-Jun-2004,22:26:55,592.9,78.3,8.8905,0.0370
22-Jun-2004,22:27:05,585.6,78.3,8.7951,0.0240
22-Jun-2004,22:27:15,578.2,78.3,8.7136,0.0120
22-Jun-2004,22:27:25,572.1,78.3,8.6678,0.0120
22-Jun-2004,22:27:35,564.7,78.3,8.6215,0.0120
22-Jun-2004,22:27:45,557.3,78.3,8.6016,0.0120
22-Jun-2004,22:27:55,550.0,78.3,8.5368,0.0240
22-Jun-2004,22:28:05,543.8,78.3,8.4813,0.0000
22-Jun-2004,22:28:15,536.5,78.3,8.4589,0.0120
22-Jun-2004,22:28:25,527.9,78.3,8.4158,0.0000
22-Jun-2004,22:28:35,520.5,78.3,8.3824,0.0000
22-Jun-2004,22:28:45,511.9,78.3,8.3448,0.0000
22-Jun-2004,22:28:55,503.3,78.3,8.2922,0.0120
22-Jun-2004,22:29:05,494.7,78.3,8.2400,0.0120
22-Jun-2004,22:29:15,487.4,78.3,8.2168,0.0060
22-Jun-2004,22:29:25,478.8,78.3,8.0922,0.0000
22-Jun-2004,22:29:35,470.2,78.3,8.1022,0.0000
22-Jun-2004,22:29:45,462.8,78.3,8.0351,0.0120
22-Jun-2004,22:29:55,455.4,78.3,7.9964,0.0000
22-Jun-2004,22:30:05,449.3,78.3,7.9597,0.0120
22-Jun-2004,22:30:15,440.7,78.3,7.9132,0.0000
22-Jun-2004,22:30:25,433.3,78.3,7.8806,0.0000
22-Jun-2004,22:30:35,425.9,78.3,7.8519,0.0000
22-Jun-2004,22:30:45,418.6,78.3,7.8127,0.0060
22-Jun-2004,22:30:55,411.2,78.3,7.7739,0.0120
22-Jun-2004,22:31:05,402.6,78.3,7.7281,0.0060
22-Jun-2004,22:31:15,395.2,78.3,7.6885,0.0180
22-Jun-2004,22:31:25,387.8,78.3,7.6699,0.0000
22-Jun-2004,22:31:35,379.2,78.3,7.6289,0.0060
22-Jun-2004,22:31:45,371.9,78.3,7.5934,0.0060
22-Jun-2004,22:31:55,364.5,78.3,7.5736,0.0060
22-Jun-2004,22:32:05,355.9,78.3,7.5510,0.0060
22-Jun-2004,22:32:15,348.5,78.3,7.5385,0.0060
22-Jun-2004,22:32:25,339.9,78.3,7.4700,0.0060
22-Jun-2004,22:32:35,332.5,78.3,7.4277,0.0060
22-Jun-2004,22:32:45,325.1,78.3,7.3984,0.0120
22-Jun-2004,22:32:55,316.5,78.3,7.3769,0.0240
22-Jun-2004,22:33:05,309.1,78.3,7.3311,0.0180
22-Jun-2004,22:33:15,300.5,78.3,7.3039,0.0180
22-Jun-2004,22:33:25,294.3,78.3,7.2650,0.0180
22-Jun-2004,22:33:35,285.7,78.3,7.2250,0.0180
22-Jun-2004,22:33:45,277.1,78.3,7.2056,0.0310
22-Jun-2004,22:33:55,269.7,78.3,7.1438,0.0120
22-Jun-2004,22:34:05,262.3,78.3,7.1283,0.0120
22-Jun-2004,22:34:15,253.7,78.3,7.0946,0.0180
22-Jun-2004,22:34:25,246.3,78.3,7.0825,0.0060
22-Jun-2004,22:34:35,237.7,78.3,7.0797,0.0060
22-Jun-2004,22:34:45,231.6,78.3,7.0751,0.0120
22-Jun-2004,22:34:55,222.9,78.3,7.0620,0.0240
22-Jun-2004,22:35:05,215.5,78.3,7.0254,0.0060
22-Jun-2004,22:35:15,209.4,78.3,7.0117,0.0060
22-Jun-2004,22:35:25,202.0,78.3,6.9937,0.0060
22-Jun-2004,22:35:35,194.6,78.3,6.9675,0.0310
22-Jun-2004,22:35:45,188.4,78.3,6.9577,0.0120
22-Jun-2004,22:35:55,179.8,78.3,6.9113,0.0060
22-Jun-2004,22:36:05,173.7,78.3,6.9041,0.0060
22-Jun-2004,22:36:15,165.0,78.3,6.8942,0.0180
22-Jun-2004,22:36:25,157.6,78.3,6.8810,0.0180
22-Jun-2004,22:36:35,150.2,78.3,6.8808,0.0060
22-Jun-2004,22:36:45,144.1,78.3,6.8615,0.0000
22-Jun-2004,22:36:55,135.4,78.3,6.8594,0.0060
22-Jun-2004,22:37:05,128.1,78.3,6.8261,0.0060
22-Jun-2004,22:37:15,119.4,78.3,6.8175,0.0120
22-Jun-2004,22:37:25,110.8,78.3,6.8112,0.0120
22-Jun-2004,22:37:35,102.2,78.1,6.7953,0.0310
22-Jun-2004,22:37:45,94.8,78.3,6.7700,0.0120
22-Jun-2004,22:37:55,87.4,78.3,6.7662,0.0240
22-Jun-2004,22:38:05,78.7,78.3,6.7590,0.0310
22-Jun-2004,22:38:15,71.3,78.3,6.7584,0.0670
22-Jun-2004,22:38:25,63.9,78.3,6.7548,0.0240
22-Jun-2004,22:38:35,55.3,78.3,6.7484,0.0310
22-Jun-2004,22:38:45,46.6,78.3,6.7386,0.0310
22-Jun-2004,22:38:55,39.2,78.3,6.7266,0.0370
22-Jun-2004,22:39:05,31.8,78.0,6.7115,0.0240
22-Jun-2004,22:39:15,24.4,77.0,6.6925,0.0310
22-Jun-2004,22:39:25,19.5,75.8,6.6651,0.0240
22-Jun-2004,22:39:35,15.8,74.7,6.6412,0.0240
22-Jun-2004,22:39:45,10.9,73.6,6.6085,0.0430
22-Jun-2004,22:39:55,7.1,72.6,6.5993,0.0370
22-Jun-2004,22:40:05,4.7,71.6,6.5918,0.0430
22-Jun-2004,22:40:15,3.4,70.6,6.5825,0.4270
22-Jun-2004,22:40:45,-0.3,100.5,6.5278,0.0000
22-Jun-2004,22:40:55,-0.3,100.5,6.5258,0.0000
22-Jun-2004,22:41:05,-0.3,100.5,6.5154,0.0000
22-Jun-2004,22:41:15,-0.3,100.5,6.4861,0.0000
22-Jun-2004,22:41:25,-0.3,100.5,6.4727,0.0000
